This demonstration page uses our WeatherBlox Daily Observations layout. Learn more.

Left ArrowRight Arrow

Hourly Observations for December 16, 2021

Temp ( °F °C ) Dew Point ( °F °C ) Humidity (%) Winds ( mph kmh ) Pressure ( in mb ) Visibility ( mi km ) Precip ( " mm )
12:51 am 00:51 Clear 33 0.6 25 -3.9 72 72 Calm 30.10 1019 10 16 0.00 0.00
1:51 am 01:51 Clear 33 0.6 26 -3.3 75 75 Calm 30.09 1019 10 16 0.00 0.00
2:51 am 02:51 Clear 32 0 25 -3.9 75 75 SSE 3 6 30.10 1019 10 16 0.00 0.00
3:51 am 03:51 Clear 29 -1.7 25 -3.9 85 85 Calm 30.10 1019 10 16 0.00 0.00
4:51 am 04:51 Clear 30 -1.1 25 -3.9 82 82 ESE 5 7 30.11 1020 10 16 0.00 0.00
5:51 am 05:51 Clear 32 0 27 -2.8 82 82 SE 6 9 30.11 1020 10 16 0.00 0.00
6:51 am 06:51 Clear 27 -2.8 24 -4.4 89 89 E 3 6 30.13 1020 10 16 0.00 0.00
7:51 am 07:51 Sunny 31 -0.6 26 -3.3 82 82 ESE 5 7 30.14 1021 10 16 0.00 0.00
8:51 am 08:51 Sunny 39 3.9 29 -1.7 67 67 SE 6 9 30.13 1020 10 16 0.00 0.00
9:51 am 09:51 Sunny 46 7.8 31 -0.6 56 56 SE 12 19 30.11 1020 10 16 0.00 0.00
10:51 am 10:51 Sunny 50 10 32 0 50 50 ESE 7 11 30.09 1019 10 16 0.00 0.00
11:51 am 11:51 Sunny 54 12.2 34 1.1 47 47 ESE 7 11 30.04 1017 10 16 0.00 0.00
12:51 pm 12:51 Sunny 56 13.3 35 1.7 46 46 S 5 7 30.00 1016 10 16 0.00 0.00
1:51 pm 13:51 Sunny 58 14.4 35 1.7 42 42 Calm 29.96 1015 10 16 0.00 0.00
2:51 pm 14:51 Sunny 59 15 36 2.2 42 42 WSW 3 6 29.93 1014 10 16 0.00 0.00
3:51 pm 15:51 Sunny 60 15.6 35 1.7 39 39 Calm 29.91 1013 10 16 0.00 0.00
4:51 pm 16:51 Sunny 58 14.4 35 1.7 42 42 S 5 7 29.91 1013 10 16 0.00 0.00
5:51 pm 17:51 Clear 52 11.1 34 1.1 50 50 Calm 29.91 1013 10 16 0.00 0.00
6:51 pm 18:51 Clear 47 8.3 33 0.6 59 59 NNW 6 9 29.94 1014 10 16 0.00 0.00
7:51 pm 19:51 Clear 45 7.2 33 0.6 63 63 WNW 3 6 29.94 1014 10 16 0.00 0.00
8:51 pm 20:51 Clear 40 4.4 31 -0.6 70 70 Calm 29.94 1014 10 16 0.00 0.00
9:51 pm 21:51 Clear 42 5.6 33 0.6 71 71 NNW 5 7 29.93 1014 10 16 0.00 0.00
10:51 pm 22:51 Clear 36 2.2 29 -1.7 76 76 Calm 29.94 1014 10 16 0.00 0.00
11:51 pm 23:51 Clear 36 2.2 29 -1.7 76 76 NNE 3 6 29.94 1014 10 16 0.00 0.00

Powered by AerisWeather